Radiation Dose at Monitoring Post of Fukushima Daini Nuclear Power Station
Date,Time,MP-1(microSv/h),MP-2(microSv/h),MP-3(microSv/h),MP-4(microSv/h),MP-5(microSv/h),MP-6(microSv/h),MP-7(microSv/h),Wind Direction,Wind Velocity(m/s),Rain
2015/10/18,00:00,0.514,0.291,0.535,0.486,0.459,0.238,0.209,northeast,0.7,No
2015/10/18,00:10,0.507,0.291,0.534,0.489,0.458,0.238,0.207,northeast,0.8,No
2015/10/18,00:20,0.511,0.290,0.531,0.488,0.457,0.239,0.208,north-northeast,0.7,No
2015/10/18,00:30,0.510,0.290,0.535,0.492,0.458,0.238,0.207,north,1.4,No
2015/10/18,00:40,0.510,0.292,0.533,0.488,0.457,0.239,0.207,north,1.3,No
2015/10/18,00:50,0.510,0.290,0.535,0.489,0.461,0.237,0.208,north,1.3,No
2015/10/18,01:00,0.509,0.292,0.530,0.490,0.455,0.239,0.206,north,1.2,No
2015/10/18,01:10,0.510,0.290,0.537,0.489,0.460,0.237,0.207,north,1.8,No
2015/10/18,01:20,0.507,0.293,0.531,0.493,0.457,0.238,0.207,north,2.1,No
2015/10/18,01:30,0.513,0.290,0.536,0.487,0.460,0.238,0.209,northwest,1.1,No
2015/10/18,01:40,0.508,0.292,0.532,0.492,0.457,0.237,0.209,north,1.8,No
2015/10/18,01:50,0.511,0.290,0.536,0.487,0.460,0.238,0.207,north,2.5,No
2015/10/18,02:00,0.509,0.292,0.534,0.492,0.457,0.239,0.207,north,3.8,No
2015/10/18,02:10,0.513,0.290,0.532,0.486,0.461,0.238,0.208,north,2.5,No
2015/10/18,02:20,0.507,0.292,0.535,0.493,0.457,0.238,0.207,north,3.1,No
2015/10/18,02:30,0.511,0.290,0.533,0.485,0.461,0.238,0.207,north,2.5,No
2015/10/18,02:40,0.510,0.292,0.537,0.490,0.458,0.237,0.207,north,2.7,No
2015/10/18,02:50,0.511,0.288,0.531,0.488,0.459,0.238,0.208,north,2.8,No
2015/10/18,03:00,0.512,0.292,0.536,0.490,0.457,0.237,0.208,north-northwest,2.4,No
2015/10/18,03:10,0.509,0.290,0.532,0.487,0.458,0.239,0.209,-,CALM,No
2015/10/18,03:20,0.512,0.292,0.536,0.489,0.458,0.238,0.207,north,0.7,No
2015/10/18,03:30,0.508,0.290,0.530,0.489,0.456,0.238,0.208,-,CALM,No
2015/10/18,03:40,0.511,0.290,0.535,0.486,0.461,0.237,0.207,-,CALM,No
2015/10/18,03:50,0.508,0.290,0.532,0.490,0.456,0.237,0.209,-,CALM,No
2015/10/18,04:00,0.513,0.289,0.535,0.486,0.461,0.236,0.208,north,0.7,No
2015/10/18,04:10,0.508,0.291,0.534,0.492,0.455,0.238,0.208,north-northwest,0.9,No
2015/10/18,04:20,0.511,0.289,0.532,0.486,0.460,0.237,0.206,northwest,1.2,No
2015/10/18,04:30,0.508,0.291,0.535,0.490,0.455,0.238,0.207,north-northwest,1.2,No
2015/10/18,04:40,0.509,0.290,0.531,0.486,0.460,0.236,0.207,northwest,1.5,No
2015/10/18,04:50,0.510,0.292,0.534,0.490,0.456,0.239,0.207,north-northwest,1.6,No
2015/10/18,05:00,0.508,0.289,0.530,0.485,0.461,0.239,0.207,north,2.2,No
2015/10/18,05:10,0.512,0.291,0.535,0.490,0.457,0.238,0.207,north-northwest,2.4,No
2015/10/18,05:20,0.508,0.290,0.530,0.486,0.460,0.238,0.207,northwest,1.4,No
2015/10/18,05:30,0.510,0.292,0.534,0.490,0.457,0.237,0.208,north-northwest,1.1,No
2015/10/18,05:40,0.507,0.288,0.531,0.485,0.460,0.238,0.207,north-northwest,1.3,No
2015/10/18,05:50,0.512,0.293,0.535,0.488,0.457,0.236,0.208,north-northwest,1.2,No
2015/10/18,06:00,0.508,0.289,0.531,0.487,0.458,0.238,0.207,north-northwest,2.2,No
2015/10/18,06:10,0.513,0.292,0.535,0.487,0.459,0.237,0.207,north-northwest,1.6,No
2015/10/18,06:20,0.508,0.290,0.534,0.490,0.458,0.237,0.207,north-northwest,1.4,No
2015/10/18,06:30,0.512,0.292,0.533,0.489,0.459,0.237,0.207,north,1.9,No
2015/10/18,06:40,0.510,0.289,0.536,0.488,0.457,0.238,0.208,north,2.2,No
2015/10/18,06:50,0.510,0.291,0.532,0.485,0.459,0.238,0.206,north,2.8,No
2015/10/18,07:00,0.511,0.290,0.535,0.488,0.457,0.239,0.206,north,3.0,No
2015/10/18,07:10,0.509,0.291,0.532,0.488,0.461,0.238,0.208,north,3.0,No
2015/10/18,07:20,0.512,0.290,0.535,0.490,0.458,0.238,0.207,north,2.5,No
2015/10/18,07:30,0.508,0.292,0.533,0.486,0.461,0.239,0.208,north,2.5,No
2015/10/18,07:40,0.511,0.290,0.536,0.491,0.456,0.238,0.205,north-northwest,2.0,No
2015/10/18,07:50,0.508,0.292,0.531,0.485,0.459,0.239,0.206,north,1.7,No
2015/10/18,08:00,0.510,0.289,0.535,0.490,0.456,0.240,0.208,north-northeast,1.5,No
2015/10/18,08:10,0.508,0.293,0.530,0.486,0.460,0.237,0.207,north-northeast,2.2,No
2015/10/18,08:20,0.512,0.288,0.535,0.488,0.456,0.239,0.206,north-northeast,3.5,No
2015/10/18,08:30,0.508,0.291,0.529,0.490,0.458,0.238,0.207,north-northeast,2.7,No
2015/10/18,08:40,0.512,0.289,0.537,0.485,0.456,0.238,0.208,northeast,2.7,No
2015/10/18,08:50,0.507,0.287,0.531,0.490,0.458,0.238,0.208,northeast,2.7,No
2015/10/18,09:00,0.511,0.292,0.534,0.485,0.459,0.236,0.207,east-northeast,1.9,No
2015/10/18,09:10,0.508,0.289,0.532,0.485,0.453,0.238,0.207,northeast,1.6,No
2015/10/18,09:20,0.504,0.286,0.531,0.489,0.459,0.237,0.206,northeast,2.1,No
2015/10/18,09:30,0.510,0.292,0.535,0.485,0.459,0.236,0.206,north-northeast,2.6,No
2015/10/18,09:40,0.509,0.290,0.531,0.481,0.454,0.238,0.208,north-northeast,2.2,No
2015/10/18,09:50,0.506,0.288,0.536,0.482,0.453,0.236,0.208,northeast,3.3,No
2015/10/18,10:00,0.501,0.287,0.530,0.491,0.458,0.237,0.206,northeast,1.9,No
2015/10/18,10:10,0.512,0.291,0.534,0.487,0.457,0.237,0.206,east-northeast,2.5,No
2015/10/18,10:20,0.510,0.290,0.535,0.484,0.454,0.239,0.208,east,1.4,No
2015/10/18,10:30,0.505,0.288,0.527,0.483,0.456,0.237,0.207,east,1.6,No
2015/10/18,10:40,0.504,0.288,0.535,0.482,0.457,0.237,0.207,east-northeast,2.6,No
2015/10/18,10:50,0.506,0.292,0.532,0.489,0.456,0.237,0.207,east-northeast,2.2,No
2015/10/18,11:00,0.512,0.291,0.525,0.489,0.452,0.239,0.209,east-northeast,2.2,No
2015/10/18,11:10,0.511,0.289,0.526,0.487,0.451,0.238,0.208,east,1.9,No
2015/10/18,11:20,0.505,0.287,0.534,0.483,0.460,0.237,0.205,east,2.5,No
2015/10/18,11:30,0.504,0.291,0.533,0.483,0.459,0.238,0.206,east,2.0,No
2015/10/18,11:40,0.512,0.290,0.529,0.483,0.455,0.238,0.209,east,2.2,No
2015/10/18,11:50,0.513,0.290,0.526,0.485,0.453,0.238,0.207,east,1.6,No
2015/10/18,12:00,0.508,0.288,0.533,0.492,0.451,0.237,0.206,east-northeast,2.1,No
2015/10/18,12:10,0.509,0.291,0.534,0.487,0.460,0.238,0.207,east,2.6,No
2015/10/18,12:20,0.516,0.292,0.531,0.487,0.460,0.238,0.208,east,2.2,No
2015/10/18,12:30,0.511,0.289,0.528,0.486,0.457,0.237,0.208,east-northeast,2.0,No
2015/10/18,12:40,0.512,0.287,0.528,0.484,0.454,0.238,0.207,east-northeast,2.0,No
2015/10/18,12:50,0.516,0.293,0.528,0.485,0.453,0.238,0.205,east,2.5,No
2015/10/18,13:00,0.508,0.291,0.534,0.486,0.455,0.238,0.208,east-northeast,2.4,No
2015/10/18,13:10,0.512,0.288,0.534,0.491,0.461,0.238,0.208,east-northeast,2.2,No
2015/10/18,13:20,0.513,0.290,0.533,0.490,0.459,0.237,0.207,northeast,1.8,No
2015/10/18,13:30,0.507,0.291,0.530,0.486,0.455,0.238,0.205,east-northeast,2.1,No
2015/10/18,13:40,0.514,0.290,0.530,0.484,0.454,0.238,0.208,east-northeast,1.5,No
2015/10/18,13:50,0.512,0.289,0.529,0.483,0.452,0.238,0.209,east,1.9,No
2015/10/18,14:00,0.505,0.290,0.535,0.492,0.459,0.239,0.207,east-northeast,1.6,No
2015/10/18,14:10,0.515,0.291,0.536,0.493,0.461,0.239,0.207,east-northeast,2.1,No
2015/10/18,14:20,0.512,0.289,0.532,0.487,0.455,0.238,0.208,east,1.6,No
2015/10/18,14:30,0.510,0.288,0.536,0.493,0.455,0.238,0.208,east-northeast,1.4,No
2015/10/18,14:40,0.514,0.292,0.538,0.493,0.463,0.237,0.209,east,1.9,No
2015/10/18,14:50,0.508,0.289,0.532,0.489,0.460,0.239,0.207,east-southeast,0.7,No
2015/10/18,15:00,0.514,0.292,0.540,0.495,0.460,0.237,0.209,east-northeast,1.4,No
2015/10/18,15:10,0.509,0.293,0.536,0.490,0.462,0.237,0.207,east-northeast,0.5,No
2015/10/18,15:20,0.514,0.292,0.535,0.492,0.458,0.239,0.208,east-southeast,0.9,No
2015/10/18,15:30,0.511,0.292,0.538,0.491,0.463,0.237,0.208,south-southeast,0.6,No
2015/10/18,15:40,0.509,0.290,0.532,0.488,0.458,0.237,0.208,southeast,1.1,No
2015/10/18,15:50,0.514,0.292,0.536,0.493,0.459,0.239,0.208,southeast,1.1,No
2015/10/18,16:00,0.509,0.291,0.536,0.488,0.460,0.238,0.207,southeast,1.1,No
2015/10/18,16:10,0.513,0.293,0.533,0.493,0.456,0.238,0.209,south-southeast,1.1,No
2015/10/18,16:20,0.509,0.290,0.534,0.489,0.461,0.237,0.207,south-southeast,0.6,No
2015/10/18,16:30,0.513,0.293,0.533,0.491,0.456,0.238,0.207,south-southeast,0.5,No
2015/10/18,16:40,0.509,0.290,0.539,0.491,0.459,0.240,0.207,south,0.6,No
2015/10/18,16:50,0.511,0.291,0.531,0.492,0.456,0.238,0.209,south-southwest,0.7,No
2015/10/18,17:00,0.510,0.290,0.536,0.491,0.459,0.239,0.208,-,CALM,No
2015/10/18,17:10,0.513,0.293,0.533,0.490,0.457,0.238,0.208,south-southwest,0.6,No
2015/10/18,17:20,0.509,0.291,0.537,0.489,0.459,0.239,0.208,south,1.1,No
2015/10/18,17:30,0.512,0.292,0.535,0.489,0.455,0.237,0.208,south,1.5,No
2015/10/18,17:40,0.511,0.291,0.536,0.490,0.461,0.238,0.209,-,CALM,No
2015/10/18,17:50,0.512,0.290,0.530,0.490,0.456,0.238,0.207,south,0.7,No
2015/10/18,18:00,0.511,0.292,0.537,0.492,0.461,0.239,0.208,south,0.8,No
2015/10/18,18:10,0.511,0.292,0.533,0.489,0.454,0.239,0.208,south,1.6,No
2015/10/18,18:20,0.511,0.291,0.537,0.491,0.463,0.238,0.208,south,1.8,No
2015/10/18,18:30,0.511,0.290,0.534,0.490,0.456,0.238,0.208,southeast,0.6,No
2015/10/18,18:40,0.511,0.293,0.536,0.489,0.461,0.239,0.208,southeast,0.9,No
2015/10/18,18:50,0.512,0.290,0.533,0.489,0.454,0.239,0.208,south-southeast,0.7,No
2015/10/18,19:00,0.512,0.290,0.536,0.490,0.462,0.239,0.208,south,0.7,No
2015/10/18,19:10,0.512,0.291,0.534,0.490,0.455,0.239,0.208,south,1.5,No
2015/10/18,19:20,0.508,0.290,0.535,0.489,0.462,0.239,0.208,south,1.5,No
2015/10/18,19:30,0.512,0.292,0.532,0.490,0.457,0.239,0.208,south,3.9,No
2015/10/18,19:40,0.511,0.290,0.537,0.490,0.461,0.239,0.208,south-southwest,5.5,No
2015/10/18,19:50,0.513,0.292,0.534,0.493,0.457,0.241,0.207,south,5.2,No
2015/10/18,20:00,0.509,0.291,0.537,0.489,0.460,0.239,0.208,south,6.1,No
2015/10/18,20:10,0.511,0.293,0.532,0.491,0.458,0.239,0.207,south,5.8,No
2015/10/18,20:20,0.509,0.291,0.537,0.489,0.459,0.240,0.209,south,5.1,No
2015/10/18,20:30,0.515,0.292,0.532,0.492,0.460,0.240,0.208,south-southwest,3.8,No
2015/10/18,20:40,0.509,0.292,0.538,0.489,0.459,0.239,0.209,southwest,2.3,No
2015/10/18,20:50,0.514,0.291,0.533,0.491,0.461,0.240,0.210,west,1.5,No
2015/10/18,21:00,0.509,0.293,0.536,0.488,0.457,0.239,0.209,west-northwest,1.3,No
2015/10/18,21:10,0.512,0.290,0.532,0.491,0.462,0.239,0.209,north,1.0,No
2015/10/18,21:20,0.510,0.293,0.539,0.489,0.456,0.240,0.209,north,1.8,No
2015/10/18,21:30,0.513,0.292,0.534,0.493,0.462,0.240,0.209,north-northwest,1.6,No
2015/10/18,21:40,0.511,0.292,0.538,0.490,0.458,0.240,0.208,north-northwest,2.2,No
2015/10/18,21:50,0.514,0.292,0.535,0.492,0.459,0.241,0.209,north,3.1,No
2015/10/18,22:00,0.511,0.293,0.536,0.490,0.459,0.239,0.208,north-northwest,3.1,No
2015/10/18,22:10,0.512,0.292,0.535,0.490,0.460,0.240,0.209,northwest,1.6,No
2015/10/18,22:20,0.512,0.290,0.536,0.492,0.458,0.239,0.209,northwest,1.7,No
2015/10/18,22:30,0.509,0.292,0.536,0.489,0.459,0.239,0.208,north-northwest,2.8,No
2015/10/18,22:40,0.513,0.292,0.536,0.491,0.460,0.239,0.210,northwest,2.4,No
2015/10/18,22:50,0.510,0.291,0.537,0.489,0.457,0.238,0.209,west-northwest,2.2,No
2015/10/18,23:00,0.512,0.293,0.534,0.492,0.461,0.239,0.209,northwest,2.4,No
2015/10/18,23:10,0.510,0.291,0.538,0.487,0.458,0.239,0.210,northwest,3.1,No
2015/10/18,23:20,0.514,0.293,0.534,0.492,0.463,0.240,0.209,northwest,3.6,No
2015/10/18,23:30,0.510,0.293,0.536,0.490,0.456,0.239,0.210,northwest,3.8,No
2015/10/18,23:40,0.514,0.292,0.533,0.491,0.461,0.239,0.210,northwest,3.0,No
2015/10/18,23:50,0.510,0.291,0.537,0.490,0.459,0.241,0.210,northwest,3.7,No
